Flag for Australia Weather past 2 weeks in Darwin, Northern Territory, Australia

Now
73 °F

Clear.


Feels Like: 74 °F
Forecast: 73 / 89 °F
Wind: 6 mph from South

Location: Darwin Airport

Current Time: Jul 1, 2015 at 12:59:19 AM

Latest Report: Jul 1, 2015 at 12:00 AM


Visibility: 10 mi

Pressure: 30.01 "Hg

Humidity: 78%

Dew point: 66 °F

Location of DarwinLocation

Historic Weather in Darwin — Graph

°F

Darwin temperature yesterday

Maximum temperature yesterday: 90 °F (at 3:00 PM)
Minimum temperature yesterday: 66 °F (at 5:30 AM)
Average temperature yesterday: 78 °F

Past Weeks' High & Low Weather Summary

 TemperatureHumidityPressure
High93 °F (Jun 18, 2:30 PM)100% (Jun 18, 1:30 AM)30.09 "Hg (Jun 18, 1:30 AM)
Low63 °F (Jun 22, 6:00 AM)10% (Jun 20, 3:30 PM)29.77 "Hg (Jun 17, 3:30 PM)
Average77 °F56%29.95 "Hg
* Reported Jun 15 10:30 PM — Jun 30 11:00 PM, Darwin, Weather by CustomWeather, © 2015

Note: Actual official high and low records may vary slightly from our data, if they occured in-between our weather recording intervals... More about our weather records

Advertising

Darwin weather history for previous 24 hours

 ConditionsComfort  
Time TempWeatherWind HumidityBarometerVisibility
11:00 PM
Tue, Jun 30
73 °FClear.5 mph83%30.01 "Hg10 mi
10:30 PM75 °FClear.7 mph74%30.01 "Hg10 mi
10:00 PM77 °FClear.8 mph69%30.01 "Hg10 mi
9:30 PM75 °FClear.8 mph78%30.01 "Hg10 mi
9:00 PM77 °FClear.8 mph69%30.01 "Hg10 mi
8:30 PM77 °FClear.7 mph69%29.98 "Hg10 mi
8:00 PM75 °FClear.7 mph69%29.98 "Hg10 mi
7:30 PM77 °FClear.6 mph65%29.95 "Hg10 mi
7:00 PM79 °FSunny.6 mph65%29.95 "Hg10 mi
6:30 PM79 °FSunny.7 mph61%29.95 "Hg10 mi
6:00 PM81 °FSunny.9 mph54%29.92 "Hg10 mi
5:30 PM82 °FSunny.10 mph48%29.92 "Hg10 mi
5:00 PM84 °FSunny.12 mph40%29.92 "Hg10 mi
4:30 PM88 °FSunny.10 mph29%29.92 "Hg10 mi
4:00 PM90 °FSunny.10 mph17%29.92 "Hg10 mi
3:30 PM90 °FSunny.10 mph17%29.92 "Hg10 mi
3:00 PM90 °FSunny.10 mph20%29.92 "Hg10 mi
2:30 PM88 °FSunny.13 mph21%29.92 "Hg10 mi
2:00 PM88 °FSunny.15 mph21%29.95 "Hg10 mi
1:30 PM88 °FSunny.15 mph22%29.98 "Hg10 mi
1:00 PM86 °FSunny.14 mph24%29.98 "Hg10 mi
12:30 PM86 °FSunny.13 mph25%30.01 "Hg10 mi
12:00 PM86 °FSunny.15 mph25%30.01 "Hg10 mi
11:30 AM86 °FPassing clouds.12 mph27%30.04 "HgN/A
11:00 AM84 °FPassing clouds.8 mph43%30.04 "HgN/A
10:30 AM81 °FSunny.7 mph48%30.04 "Hg10 mi
10:00 AM81 °FSunny.7 mph62%30.07 "Hg10 mi
9:30 AM79 °FSunny.7 mph61%30.07 "Hg10 mi
9:00 AM75 °FSunny.7 mph65%30.04 "Hg10 mi
8:30 AM72 °FPassing clouds.7 mph73%30.04 "Hg6 mi
8:00 AM70 °FSunny.6 mph78%30.04 "Hg10 mi
6:30 AM66 °FClear.7 mph88%30.01 "Hg10 mi
6:00 AM66 °FClear.8 mph88%30.01 "Hg10 mi
5:30 AM66 °FClear.7 mph94%30.01 "Hg10 mi
5:00 AM68 °FClear.8 mph88%29.98 "Hg10 mi
4:30 AM70 °FClear.8 mph83%29.98 "Hg10 mi
4:00 AM68 °FClear.9 mph88%29.98 "Hg10 mi
3:30 AM70 °FClear.7 mph83%29.98 "Hg10 mi
3:00 AM70 °FClear.8 mph83%30.01 "Hg10 mi
2:30 AM70 °FClear.9 mph88%30.01 "Hg10 mi
2:00 AM70 °FClear.7 mph88%30.01 "Hg10 mi
1:30 AM72 °FClear.7 mph83%30.01 "Hg10 mi
12:30 AM72 °FClear.7 mph83%30.01 "Hg10 mi
12:00 AM72 °FClear.8 mph83%30.01 "Hg10 mi
Weather by CustomWeather, © 2015

See weather overviewHow to use our weather pages